timestamp,surface_pressure_avg,surface_temp_avg,battery_voltage,lat,long
2022-10-08 00:09:00+00:00,329.3729,14.3,11.61,47.84626,-54.09684
2022-10-08 00:19:00+00:00,321.108,14.3,11.61,47.84626,-54.09684
2022-10-08 00:29:00+00:00,315.763,14.3,11.61,47.84626,-54.09684
2022-10-08 00:39:00+00:00,307.2397,14.3,11.61,47.84626,-54.09684
2022-10-08 00:49:00+00:00,297.413,14.3,11.61,47.84626,-54.09684
2022-10-08 00:59:00+00:00,288.8881,14.3,11.61,47.84626,-54.09684
2022-10-08 01:09:00+00:00,282.5397,14.29,11.61,47.84626,-54.09684
2022-10-08 01:19:00+00:00,274.2897,14.23,11.61,47.84626,-54.09684
2022-10-08 01:29:00+00:00,262.6031,14.28,11.61,47.84626,-54.09684
2022-10-08 01:39:00+00:00,254.8347,14.29,11.61,47.84626,-54.09684
2022-10-08 01:49:00+00:00,248.8831,14.28,11.61,47.84626,-54.09684
2022-10-08 01:59:00+00:00,240.4881,14.28,11.61,47.84626,-54.09684
2022-10-08 02:09:00+00:00,232.1747,14.29,11.61,47.84626,-54.09684
2022-10-08 02:19:00+00:00,226.6815,14.28,11.61,47.84626,-54.09684
2022-10-08 02:29:00+00:00,222.3315,14.27,11.61,47.84626,-54.09684
2022-10-08 02:39:00+00:00,218.0614,14.28,11.61,47.84626,-54.09684
2022-10-08 02:49:00+00:00,212.6914,14.29,11.61,47.84626,-54.09684
2022-10-08 02:59:00+00:00,206.7498,14.29,11.61,47.84626,-54.09684
2022-10-08 03:09:00+00:00,203.0281,14.29,11.61,47.84626,-54.09684
2022-10-08 03:19:00+00:00,200.1781,14.29,11.61,47.84626,-54.09684
2022-10-08 03:29:00+00:00,194.5798,14.29,11.61,47.84626,-54.09684
2022-10-08 03:39:00+00:00,190.0148,14.2,11.61,47.84626,-54.09684
2022-10-08 03:49:00+00:00,190.4164,14.2,11.61,47.84626,-54.09684
2022-10-08 03:59:00+00:00,190.9015,14.2,11.61,47.84626,-54.09684
2022-10-08 04:09:00+00:00,188.6215,14.2,11.61,47.84626,-54.09684
2022-10-08 04:19:01+00:00,188.2281,14.2,11.53,47.84626,-54.09684
2022-10-08 04:29:01+00:00,191.9698,14.2,11.53,47.84626,-54.09684
2022-10-08 04:39:01+00:00,191.5898,14.2,11.53,47.84626,-54.09684
2022-10-08 04:49:01+00:00,191.6848,14.2,11.53,47.84626,-54.09684
2022-10-08 04:59:01+00:00,195.5114,14.2,11.53,47.84626,-54.09684
2022-10-08 05:09:01+00:00,197.5581,14.2,11.53,47.84626,-54.09684
2022-10-08 05:19:00+00:00,200.4015,14.2,11.53,47.84626,-54.09684
2022-10-08 05:29:00+00:00,205.8914,14.2,11.53,47.84626,-54.09684
2022-10-08 05:39:00+00:00,209.2731,14.2,11.53,47.84626,-54.09684
2022-10-08 05:49:00+00:00,211.3264,14.2,11.53,47.84626,-54.09684
2022-10-08 05:59:00+00:00,216.2747,14.2,11.53,47.84626,-54.09684
2022-10-08 06:09:00+00:00,220.7764,14.2,11.53,47.84626,-54.09684
2022-10-08 06:19:00+00:00,224.4081,14.2,11.53,47.84626,-54.09684
2022-10-08 06:29:00+00:00,227.5064,14.2,11.53,47.84626,-54.09684
2022-10-08 06:39:00+00:00,233.2781,14.2,11.53,47.84626,-54.09684
2022-10-08 06:49:00+00:00,238.2065,14.2,11.53,47.84626,-54.09684
2022-10-08 06:59:00+00:00,243.1082,14.2,11.53,47.84626,-54.09684
2022-10-08 07:09:00+00:00,248.8148,14.2,11.53,47.84626,-54.09684
2022-10-08 07:19:00+00:00,254.3614,14.2,11.53,47.84626,-54.09684
2022-10-08 07:29:00+00:00,259.7914,14.2,11.53,47.84626,-54.09684
2022-10-08 07:39:00+00:00,266.3498,14.18,11.53,47.84626,-54.09684
2022-10-08 07:49:00+00:00,273.913,14.13,11.53,47.84626,-54.09684
2022-10-08 07:59:00+00:00,280.5281,14.1,11.53,47.84626,-54.09684
2022-10-08 08:09:00+00:00,287.1014,14.1,11.53,47.84626,-54.09684
2022-10-08 08:19:00+00:00,294.9797,14.1,11.53,47.84626,-54.09684
2022-10-08 08:29:00+00:00,304.0663,14.1,11.53,47.84626,-54.09684
2022-10-08 08:39:00+00:00,312.1329,14.1,11.53,47.84626,-54.09684
2022-10-08 08:49:00+00:00,317.8214,14.1,11.53,47.84626,-54.09684
2022-10-08 08:59:00+00:00,325.6512,14.18,11.53,47.84626,-54.09684
2022-10-08 09:09:00+00:00,330.3096,14.2,11.53,47.84626,-54.09684
2022-10-08 09:19:00+00:00,336.548,14.2,11.53,47.84626,-54.09684
2022-10-08 09:29:00+00:00,343.9563,14.2,11.53,47.84626,-54.09684
2022-10-08 09:39:00+00:00,348.2178,14.2,11.53,47.84626,-54.09684
2022-10-08 09:49:00+00:00,346.3662,14.18,11.53,47.84626,-54.09684
2022-10-08 09:59:00+00:00,347.8495,14.1,11.53,47.84626,-54.09684
2022-10-08 10:09:00+00:00,354.1179,14.1,11.53,47.84626,-54.09684
2022-10-08 10:19:00+00:00,355.1144,14.1,11.53,47.84626,-54.09684
2022-10-08 10:29:00+00:00,353.4446,14.09,11.53,47.84626,-54.09684
2022-10-08 10:39:00+00:00,353.7531,14.01,11.53,47.84626,-54.09684
2022-10-08 10:49:00+00:00,356.1263,14.06,11.53,47.84626,-54.09684
2022-10-08 10:59:00+00:00,353.218,14.1,11.53,47.84626,-54.09684
2022-10-08 11:09:00+00:00,348.3247,14.1,11.53,47.84626,-54.09684
2022-10-08 11:19:00+00:00,347.8079,14.09,11.53,47.84626,-54.09684
2022-10-08 11:29:00+00:00,346.9813,14.1,11.53,47.84626,-54.09684
2022-10-08 11:39:00+00:00,340.9297,14.1,11.53,47.84626,-54.09684
2022-10-08 11:49:00+00:00,334.2962,14.1,11.53,47.84626,-54.09684
2022-10-08 11:59:00+00:00,329.598,14.08,11.53,47.84626,-54.09684
2022-10-08 12:09:00+00:00,322.993,14.1,11.53,47.84626,-54.09684
2022-10-08 12:19:00+00:00,314.658,14.0,11.53,47.84626,-54.09684
2022-10-08 12:29:00+00:00,311.5197,14.0,11.53,47.84626,-54.09684
2022-10-08 12:39:00+00:00,309.7214,14.0,11.53,47.84626,-54.09684
2022-10-08 12:49:00+00:00,302.1813,14.02,11.53,47.84626,-54.09684
2022-10-08 12:59:00+00:00,294.4481,14.0,11.53,47.84626,-54.09684
2022-10-08 13:09:00+00:00,284.6664,14.0,11.53,47.84626,-54.09684
2022-10-08 13:19:00+00:00,276.3831,14.0,11.61,47.84626,-54.09684
2022-10-08 13:29:00+00:00,266.2731,14.0,11.61,47.84626,-54.09684
2022-10-08 13:39:00+00:00,257.2448,14.0,11.61,47.84626,-54.09684
2022-10-08 13:49:00+00:00,248.5664,14.01,11.61,47.84626,-54.09684
2022-10-08 13:59:00+00:00,239.2598,14.05,11.61,47.84626,-54.09684
2022-10-08 14:09:00+00:00,228.7214,14.07,11.61,47.84626,-54.09684
2022-10-08 14:19:00+00:00,219.6281,14.08,11.61,47.84626,-54.09684
2022-10-08 14:29:00+00:00,213.0731,14.09,11.61,47.84626,-54.09684
2022-10-08 14:39:00+00:00,206.6415,14.1,11.61,47.84626,-54.09684
2022-10-08 14:49:00+00:00,198.9714,14.1,11.61,47.84626,-54.09684
2022-10-08 14:59:00+00:00,191.9148,14.1,11.61,47.84626,-54.09684
2022-10-08 15:09:00+00:00,186.6215,14.1,11.61,47.84626,-54.09684
2022-10-08 15:19:00+00:00,183.0181,14.1,11.77,47.84626,-54.09684
2022-10-08 15:29:00+00:00,178.5198,14.1,11.77,47.84626,-54.09684
2022-10-08 15:39:00+00:00,173.4832,14.1,11.77,47.84626,-54.09684
2022-10-08 15:49:00+00:00,170.7465,14.1,11.77,47.84626,-54.09684
2022-10-08 15:59:00+00:00,166.7915,14.1,11.77,47.84626,-54.09684
2022-10-08 16:09:00+00:00,165.1147,14.1,11.77,47.84626,-54.09684
2022-10-08 16:19:00+00:00,167.8948,14.1,11.7,47.84626,-54.09684
2022-10-08 16:29:00+00:00,168.0282,14.1,11.7,47.84626,-54.09684
2022-10-08 16:39:00+00:00,166.5116,14.1,11.7,47.84626,-54.09684
2022-10-08 16:49:00+00:00,168.5248,14.1,11.7,47.84626,-54.09684
2022-10-08 16:59:00+00:00,170.7165,14.1,11.7,47.84626,-54.09684
2022-10-08 17:09:00+00:00,171.2682,14.1,11.7,47.84626,-54.09684
2022-10-08 17:19:00+00:00,174.2331,14.1,11.7,47.84626,-54.09684
2022-10-08 17:29:00+00:00,179.5148,14.1,11.7,47.84626,-54.09684
2022-10-08 17:39:00+00:00,183.2498,14.1,11.7,47.84626,-54.09684
2022-10-08 17:49:00+00:00,184.9381,14.1,11.7,47.84626,-54.09684
2022-10-08 17:59:00+00:00,189.0714,14.1,11.7,47.84626,-54.09684
2022-10-08 18:09:00+00:00,195.4031,14.1,11.7,47.84626,-54.09684
2022-10-08 18:19:01+00:00,199.1414,14.1,11.7,47.84626,-54.09684
2022-10-08 18:29:01+00:00,201.4915,14.1,11.7,47.84626,-54.09684
2022-10-08 18:39:01+00:00,207.9281,14.1,11.7,47.84626,-54.09684
2022-10-08 18:49:01+00:00,216.5281,14.1,11.7,47.84626,-54.09684
2022-10-08 18:59:01+00:00,221.6064,14.15,11.7,47.84626,-54.09684
2022-10-08 19:09:01+00:00,224.1898,14.16,11.7,47.84626,-54.09684
2022-10-08 19:19:00+00:00,228.5114,14.16,11.61,47.84626,-54.09684
2022-10-08 19:29:00+00:00,236.3414,14.17,11.61,47.84626,-54.09684
2022-10-08 19:39:00+00:00,244.2581,14.18,11.61,47.84626,-54.09684
2022-10-08 19:49:00+00:00,248.933,14.18,11.61,47.84626,-54.09684
2022-10-08 19:59:00+00:00,252.5381,14.19,11.61,47.84626,-54.09684
2022-10-08 20:09:00+00:00,263.4314,14.18,11.61,47.84626,-54.09684
2022-10-08 20:19:00+00:00,278.0297,14.1,11.61,47.84626,-54.09684
2022-10-08 20:29:00+00:00,285.0164,14.1,11.61,47.84626,-54.09684
2022-10-08 20:39:00+00:00,288.0114,14.1,11.61,47.84626,-54.09684
2022-10-08 20:49:00+00:00,296.7797,14.1,11.61,47.84626,-54.09684
2022-10-08 20:59:00+00:00,310.473,14.1,11.61,47.84626,-54.09684
2022-10-08 21:09:00+00:00,319.0297,14.1,11.61,47.84626,-54.09684
2022-10-08 21:19:00+00:00,327.5831,14.1,11.61,47.84626,-54.09684
2022-10-08 21:29:00+00:00,338.4246,14.1,11.61,47.84626,-54.09684
2022-10-08 21:39:00+00:00,348.4113,14.1,11.61,47.84626,-54.09684
2022-10-08 21:49:00+00:00,349.86800000000005,14.1,11.61,47.84626,-54.09684
2022-10-08 21:59:00+00:00,356.1746,14.1,11.61,47.84626,-54.09684
2022-10-08 22:09:00+00:00,362.6829,14.1,11.61,47.84626,-54.09684
2022-10-08 22:19:01+00:00,356.5797,14.1,11.61,47.84626,-54.09684
2022-10-08 22:29:01+00:00,356.5013,14.1,11.61,47.84626,-54.09684
2022-10-08 22:39:01+00:00,368.9746,14.1,11.61,47.84626,-54.09684
2022-10-08 22:49:01+00:00,371.4128,14.1,11.61,47.84626,-54.09684
2022-10-08 22:59:01+00:00,365.0729,14.1,11.61,47.84626,-54.09684
2022-10-08 23:09:01+00:00,366.1196,14.1,11.61,47.84626,-54.09684
2022-10-08 23:19:01+00:00,367.2795,14.1,11.61,47.84626,-54.09684
2022-10-08 23:29:01+00:00,363.7762,14.1,11.61,47.84626,-54.09684
2022-10-08 23:39:01+00:00,362.4095,14.1,11.61,47.84626,-54.09684
2022-10-08 23:49:01+00:00,363.6446,14.1,11.61,47.84626,-54.09684
2022-10-08 23:59:01+00:00,357.673,14.1,11.61,47.84626,-54.09684
